Tracking 23099 objects as of 14-May-2021
HD Live streaming from Space Station
objects crossing your sky now

OV1-5 DEB

Track OV1-5 DEB now!
10-day predictions


NORAD ID: 3611
Int'l Code: 1966-025E
Perigee: 582.8 km
Apogee: 600.6 km
Inclination: 144.6 °
Period: 96.4 minutes
Semi major axis: 6962 km
RCS: 0.0246 m2 (small)
Launch date: March 30, 1966
Source: United States (US)
Launch site: AIR FORCE WESTERN TEST RANGE (AFWTR)

Note: This is SATELLITE DEBRIS
aabbcc
Your satellite tracking list
Your tracking list is empty




NASA's NSSDC Master Catalog

Two Line Element Set (TLE):
1  3611U 66025E   21133.44041266  .00002613  00000-0  19455-3 0  9996
2  3611 144.5578 320.6182 0012779  50.2643 309.9197 14.94309259856918
Source of the keplerian elements: AFSPC